Home > Weather > Knittelfeld > Past weeks

Flag for Austria Weather for the Past 2 Weeks in Knittelfeld, Styria, Austria

Now
39 °F

Broken clouds.


Feels Like: 33 °F
Forecast: 34 / 50 °F
Wind: 9 mph from West

Location: Zeltweg

Current Time: Feb 7, 2016 at 9:33:32 AM

Latest Report: Feb 7, 2016 at 8:50 AM


Visibility: 19 mi

Pressure: 29.92 "Hg (27.65 "Hg at 641m altitude)

Humidity: 70%

Dew point: 30 °F

Location of KnittelfeldLocation

Historic Weather in Knittelfeld — Graph

°F

Knittelfeld Temperature Yesterday

Maximum temperature yesterday: 46 °F (at 3:20 PM)
Minimum temperature yesterday: 25 °F (at 4:50 AM)
Average temperature yesterday: 36 °F

High & Low Weather Summary for the Past Weeks

 TemperatureHumidityPressure
High57 °F (Feb 1, 1:50 PM)100% (Jan 23, 7:20 AM)30.51 "Hg (Jan 23, 7:20 AM)
Low12 °F (Jan 23, 7:20 AM)45% (Feb 4, 11:20 AM)29.86 "Hg (Jan 31, 3:50 AM)
Average35 °F81%30.23 "Hg
* Reported Jan 23 7:20 AM — Feb 7 7:50 AM, Knittelfeld, Weather by CustomWeather, © 2016

Note: Actual official high and low records may vary slightly from our data, if they occured in-between our weather recording intervals... More about our weather records

Advertising

Knittelfeld Weather History for the Previous 24 Hours

 ConditionsComfort  
Time TempWeatherWind HumidityBarometerVisibility
7:50 AM
Sun, Feb 7
45 °FPartly sunny.8 mph53%29.95 "Hg12 mi
6:50 AM41 °FPassing clouds.5 mph61%29.92 "Hg9 mi
5:50 AM41 °FPassing clouds.3 mph57%29.92 "Hg9 mi
4:50 AM39 °FPassing clouds.8 mph65%29.95 "Hg9 mi
3:50 AM37 °FPassing clouds.12 mph70%29.95 "Hg9 mi
9:50 PM
Sat, Feb 6
30 °FPassing clouds.3 mph93%30.09 "Hg9 mi
8:50 PM32 °FPassing clouds.3 mph87%30.09 "Hg9 mi
7:50 PM32 °FPassing clouds.1 mph93%30.12 "Hg9 mi
6:50 PM34 °FPassing clouds.3 mph93%30.12 "Hg9 mi
5:50 PM39 °FPassing clouds.1 mph75%30.15 "Hg19 mi
4:50 PM39 °FPartly sunny.3 mph75%30.15 "Hg25 mi
4:20 PM45 °FScattered clouds.3 mph66%30.15 "Hg25 mi
3:50 PM46 °FPartly sunny.2 mph62%30.15 "Hg25 mi
3:20 PM46 °FPartly sunny.2 mph66%30.15 "Hg25 mi
2:50 PM45 °FPartly sunny.2 mph61%30.18 "Hg25 mi
2:20 PM45 °FPartly sunny.1 mph61%30.18 "Hg25 mi
1:50 PM45 °FPartly sunny.1 mph61%30.18 "Hg25 mi
1:20 PM43 °FPartly sunny.1 mph66%30.21 "Hg25 mi
12:50 PM41 °FPartly sunny.1 mph66%30.21 "Hg25 mi
12:20 PM37 °FScattered clouds.2 mph75%30.24 "Hg25 mi
11:50 AM39 °FPassing clouds.1 mph70%30.27 "Hg25 mi
11:20 AM36 °FPassing clouds.2 mph81%30.27 "Hg25 mi
10:50 AM34 °FPassing clouds.2 mph87%30.27 "Hg25 mi
10:20 AM32 °FPassing clouds.1 mph93%30.27 "Hg25 mi
9:20 AM28 °FChilly.2 mph100%30.30 "Hg9 mi
Weather by CustomWeather, © 2016

See weather overviewHow to use our weather pages